User: anonymous   Login
Location: Boussy-Saint-Antoine
(48.6830°N, 2.5330°E)
Time: 04:59:20
(UTC+02:00)
Language:

JY1SAT - Orbit

View from above orbital plane
View from above orbital plane
View from above satellite
View from above satellite

Ground track
Ground track

The orbit data is extracted from the following two-line orbital elements,

1 43803U 18099AX  19198.14480080  .00000628  00000-0  62216-4 0  9995
2 43803  97.7415 269.7378 0014061 229.8396 130.1594 14.95279513 33674
Epoch (UTC): 17 July 2019 03:28:30
Eccentricity: 0.0014061
inclination: 97.7415°
perigee height: 572 km
apogee height: 591 km
right ascension of ascending node: 269.7378°
argument of perigee: 229.8396°
revolutions per day: 14.95279513
mean anomaly at epoch: 130.1594°
orbit number at epoch: 3367

The dashed part of the orbit path shows where the satellite is in the earth's shadow,  

DLR